[[{"header":{"parameterUnit":"m.s-1","parameterCategory":1,"la1":30.2991,"la2":30.254,"lo1":-89.0895,"lo2":-89.0444,"dy":0.0017,"dx":0.0017,"nx":28,"ny":28,"refTime":"2025-12-10T03:00:00:Z","depth":0,"parameterNumber":2,"parameterNumberName":"U-component_of_WINDS"},"data":[0,0,0,0,0,0,0,0,0,0,0,0,0,0,0,0,0,0,0,0,0,0,0,0,0,0,0,0,0,0,0,0,0,0,0,0,0,0,0,0,0,0,0,0,0,0,0,0,0,0,0,0,0,0,0,0,0,0,-0.3444,-0.3444,0,-0.3397,-0.3397,-0.3396,-0.3343,-0.3342,-0.3341,-0.334,-0.3293,-0.3292,-0.3292,0,0,0,0,0,0,0,0,0,0,0,0,0,-0.3489,-0.3489,-0.3444,-0.3444,-0.3443,-0.3397,-0.3397,-0.3396,-0.3343,-0.3342,-0.3341,-0.334,-0.3293,-0.3292,-0.3292,0,0,0,0,0,0,0,0,0,0,0,0,0,-0.3459,-0.3488,-0.3444,-0.3411,-0.3407,-0.3397,-0.3397,-0.3396,-0.3343,-0.3342,-0.334,-0.3339,-0.3293,-0.3292,-0.3292,-0.3311,0,0,-0.3289,-0.3289,0,0,0,0,0,0,0,0,-0.346,-0.3457,-0.3416,-0.3413,-0.3409,-0.3374,-0.3395,-0.3367,-0.3343,-0.3367,-0.334,-0.3339,-0.3321,-0.3318,-0.3312,-0.3309,-0.3307,-0.3289,-0.3289,-0.3288,-0.3288,0,0,0,0,0,0,0,-0.3463,-0.3459,-0.3426,-0.3416,-0.3412,-0.3399,-0.3393,-0.339,-0.3352,-0.3365,-0.3361,-0.3356,-0.3319,-0.3313,-0.331,-0.3306,-0.3289,-0.3289,-0.3288,-0.3288,-0.3318,-0.3319,0,0,0,0,0,0,-0.347,-0.3461,-0.3427,-0.3424,-0.3432,-0.3399,-0.3393,-0.3387,-0.3351,-0.3345,-0.3357,-0.3354,-0.3315,-0.3311,-0.3308,-0.333,-0.3288,-0.3288,-0.3287,-0.3317,-0.3318,-0.332,0,0,0,0,0,0,-0.3471,-0.3467,-0.3429,-0.3441,-0.3436,-0.3399,-0.3394,-0.3387,-0.338,-0.3346,-0.3339,-0.3358,-0.3313,-0.3309,-0.3311,-0.3327,-0.3287,-0.3287,-0.3315,-0.3317,-0.3319,-0.3372,0,0,0,0,0,0,-0.3472,-0.3468,-0.3475,-0.3442,-0.3435,-0.3432,-0.3394,-0.3387,-0.3379,-0.3374,-0.3344,-0.3338,-0.3312,-0.3312,-0.331,-0.3326,-0.3286,-0.3314,-0.3316,-0.3318,-0.3369,-0.3376,-0.3381,0,0,0,0,0,-0.3474,-0.3491,-0.3475,-0.3471,-0.3443,-0.3433,-0.3429,-0.3399,-0.3381,-0.3387,-0.3365,-0.3339,-0.3326,-0.3313,-0.331,-0.3325,-0.3313,-0.3315,-0.3318,-0.3366,-0.3374,-0.3381,0,0,0,0,0,0,-0.3527,-0.3486,-0.3468,-0.3475,-0.3458,-0.3424,-0.3432,-0.3409,-0.3397,-0.3393,-0.3355,-0.3349,-0.3356,-0.334,-0.3327,-0.3343,-0.3315,-0.3318,-0.3353,-0.336,-0.3367,-0.3371,-0.3285,0,0,0,0,0,-0.3539,-0.3534,-0.3499,-0.3509,-0.3501,-0.3468,-0.3463,-0.3441,-0.3422,-0.3415,-0.3392,-0.3375,-0.3367,-0.3363,-0.3353,-0.3366,-0.3359,-0.3375,-0.3382,-0.3387,-0.339,-0.3397,-0.3404,-0.3329,-0.3329,-0.3329,0,0,-0.3565,-0.3542,-0.3541,-0.3519,-0.3503,-0.35,-0.3463,-0.346,-0.3458,-0.3414,-0.3415,-0.3398,-0.3376,-0.3384,-0.3386,-0.3372,-0.3409,-0.339,-0.3395,-0.3395,-0.34,-0.3407,-0.3414,-0.3331,-0.3331,-0.333,0,0,-0.361,-0.3592,-0.3598,-0.3583,-0.356,-0.3538,-0.354,-0.3509,-0.3497,-0.3496,-0.3464,-0.3461,-0.3447,-0.3434,-0.3425,-0.3466,-0.3442,-0.3464,-0.3497,-0.3505,-0.351,-0.3516,-0.3531,-0.3537,-0.3467,-0.3467,-0.3467,0,-0.3645,-0.3638,-0.3605,-0.3605,-0.3597,-0.3557,-0.3564,-0.3551,-0.3526,-0.3521,-0.3505,-0.3488,-0.3471,-0.3476,-0.3486,-0.3479,-0.3481,-0.3467,-0.3512,-0.3517,-0.3521,-0.3536,-0.3542,-0.347,-0.3469,-0.3469,-0.3469,0,-0.3683,-0.3679,-0.3687,-0.3664,-0.3656,-0.366,-0.3628,-0.3624,-0.3603,-0.3583,-0.3584,-0.3562,-0.3548,-0.3547,-0.3526,-0.3549,-0.3541,-0.3519,-0.3491,-0.3532,-0.3545,-0.355,-0.3474,-0.3473,-0.3472,-0.3471,0,0,-0.376,-0.3719,-0.3722,-0.3712,-0.3684,-0.368,-0.3682,-0.3668,-0.3667,-0.3651,-0.3652,-0.3642,-0.3622,-0.3613,-0.359,-0.3596,-0.3632,-0.3574,-0.3573,-0.3586,-0.3657,-0.3675,-0.3682,-0.3616,-0.3616,-0.3617,-0.3659,0,-0.3801,-0.3802,-0.3772,-0.3782,-0.3779,-0.3741,-0.3743,-0.3727,-0.3708,-0.3703,-0.3682,-0.3676,-0.3649,-0.3643,-0.3648,-0.3627,-0.3646,-0.3623,-0.3618,-0.3618,-0.3625,-0.3688,-0.3707,-0.3748,-0.3664,-0.3665,-0.3666,0,-0.3848,-0.3836,-0.3845,-0.3817,-0.3815,-0.3817,-0.3803,-0.3798,-0.3779,-0.3765,-0.3754,-0.3729,-0.373,-0.3702,-0.3704,-0.3689,-0.3685,-0.3675,-0.3675,-0.3675,-0.3645,-0.3691,-0.376,-0.3767,-0.3673,-0.3673,-0.3672,0,-0.3905,-0.389,-0.3894,-0.3887,-0.3854,-0.3857,-0.3843,-0.3823,-0.3817,-0.3804,-0.38,-0.3788,-0.3782,-0.3773,-0.3745,-0.3728,-0.3751,-0.3721,-0.374,-0.3741,-0.3747,-0.3747,-0.3818,-0.3743,-0.3743,-0.3743,-0.3743,0,-0.3955,-0.3963,-0.392,-0.3922,-0.393,-0.3896,-0.3905,-0.3888,-0.387,-0.3869,-0.3836,-0.3836,-0.3799,-0.3795,-0.3773,-0.3778,-0.3775,-0.3765,-0.3759,-0.3769,-0.377,-0.3766,-0.3763,-0.3744,-0.3744,-0.3744,-0.3743,0,-0.402,-0.3992,-0.3994,-0.3963,-0.3955,-0.3963,-0.3936,-0.3938,-0.3917,-0.3917,-0.3915,-0.3883,-0.3877,-0.3848,-0.3835,-0.382,-0.3833,-0.3821,-0.384,-0.3837,-0.3858,-0.3857,-0.393,-0.3938,-0.3857,-0.3858,-0.3858,0,-0.4054,-0.4059,-0.4029,-0.4026,-0.4014,-0.401,-0.4003,-0.3971,-0.3966,-0.3944,-0.3949,-0.394,-0.3931,-0.3923,-0.3899,-0.389,-0.3878,-0.3904,-0.3876,-0.3886,-0.388,-0.388,-0.3881,-0.391,-0.3911,-0.3912,-0.3913,0,-0.4118,-0.4104,-0.4096,-0.4084,-0.4078,-0.4066,-0.4053,-0.4053,-0.4016,-0.4012,-0.4006,-0.3999,-0.3986,-0.3978,-0.3964,-0.3951,-0.3927,-0.3922,-0.3926,-0.3936,-0.3947,-0.3943,-0.3858,-0.392,-0.392,-0.3919,-0.3919,-0.3918,-0.4169,-0.4173,-0.4152,-0.4145,-0.4132,-0.412,-0.4121,-0.41,-0.4094,-0.4081,-0.4062,-0.4058,-0.4039,-0.4018,-0.4007,-0.4004,-0.399,-0.3996,-0.3998,-0.4,-0.4005,-0.3947,-0.4002,-0.4001,-0.4001,-0.4001,-0.4001,0,-0.4233,-0.4218,-0.4211,-0.4194,-0.4189,-0.4166,-0.415,-0.4147,-0.4145,-0.4129,-0.4121,-0.4114,-0.4107,-0.4082,-0.4072,-0.4075,-0.4064,-0.4074,-0.4074,-0.4071,-0.4018,-0.4016,-0.4083,-0.4083,-0.4083,-0.4083,-0.4083,-0.4083,-0.4265,-0.427,-0.4253,-0.4251,-0.4236,-0.4232,-0.4226,-0.4216,-0.4203,-0.4197,-0.419,-0.4174,-0.4156,-0.4144,-0.4137,-0.413,-0.4128,-0.4142,-0.4132,-0.4083,-0.4075,-0.4067,-0.4065,-0.4142,-0.4142,-0.4186,-0.4186,-0.4187]},{"header":{"parameterUnit":"m.s-1","parameterCategory":1,"la1":30.2991,"la2":30.254,"lo1":-89.0895,"lo2":-89.0444,"dy":0.0017,"dx":0.0017,"nx":28,"ny":28,"refTime":"2025-12-10T03:00:00:Z","depth":0,"parameterNumber":3,"parameterNumberName":"V-component_of_WINDS"},"data":[0,0,0,0,0,0,0,0,0,0,0,0,0,0,0,0,0,0,0,0,0,0,0,0,0,0,0,0,0,0,0,0,0,0,0,0,0,0,0,0,0,0,0,0,0,0,0,0,0,0,0,0,0,0,0,0,0,0,1.4048,1.4047,0,1.3976,1.3976,1.3975,1.3971,1.3972,1.3973,1.3974,1.3898,1.3895,1.3892,0,0,0,0,0,0,0,0,0,0,0,0,0,1.4178,1.4176,1.4048,1.4047,1.4046,1.3977,1.3976,1.3975,1.3971,1.3972,1.3973,1.3974,1.3899,1.3895,1.3892,0,0,0,0,0,0,0,0,0,0,0,0,0,1.4116,1.4175,1.4048,1.4036,1.4034,1.3977,1.3976,1.3974,1.3971,1.3972,1.3973,1.3974,1.39,1.3896,1.3892,1.3841,0,0,1.3879,1.3877,0,0,0,0,0,0,0,0,1.4119,1.4111,1.4038,1.4036,1.4034,1.3984,1.3994,1.393,1.397,1.3995,1.3974,1.3975,1.3925,1.3919,1.3903,1.3837,1.3834,1.3878,1.3876,1.3874,1.3873,0,0,0,0,0,0,0,1.4124,1.4114,1.4019,1.4037,1.4035,1.4033,1.4026,1.3982,1.3954,1.3993,1.3992,1.3984,1.3924,1.3907,1.3901,1.3833,1.3879,1.3875,1.3872,1.3871,1.3722,1.3721,0,0,0,0,0,0,1.4131,1.4118,1.4022,1.4017,1.4081,1.403,1.4021,1.3999,1.3954,1.3949,1.3983,1.3984,1.3914,1.3906,1.3898,1.3835,1.3874,1.387,1.3868,1.3723,1.3722,1.372,0,0,0,0,0,0,1.4133,1.4122,1.4025,1.4067,1.4055,1.4026,1.4001,1.3997,1.3979,1.3947,1.3942,1.397,1.3914,1.3904,1.3855,1.3833,1.3868,1.3865,1.3725,1.3723,1.3721,1.3709,0,0,0,0,0,0,1.4137,1.4123,1.4104,1.4067,1.4053,1.3983,1.4,1.3994,1.3972,1.3973,1.3934,1.3928,1.3914,1.3862,1.3851,1.3828,1.3861,1.3727,1.3724,1.3722,1.3712,1.3707,1.3703,0,0,0,0,0,1.4142,1.4103,1.4103,1.4091,1.4028,1.3982,1.3973,1.3959,1.3971,1.3951,1.393,1.393,1.3838,1.3857,1.3845,1.382,1.3728,1.3725,1.3722,1.3713,1.3708,1.3703,0,0,0,0,0,0,1.4137,1.4098,1.4097,1.4045,1.4017,1.3981,1.3956,1.3954,1.3921,1.3923,1.3905,1.3896,1.3848,1.3829,1.3851,1.3768,1.3784,1.3778,1.3782,1.3776,1.3772,1.3777,1.3858,0,0,0,0,0,1.413,1.4096,1.4064,1.4021,1.4007,1.3984,1.3963,1.3955,1.3924,1.3912,1.3888,1.3858,1.3822,1.3798,1.3764,1.371,1.37,1.3687,1.3683,1.3679,1.3674,1.3643,1.3637,1.3709,1.3709,1.3709,0,0,1.4114,1.4089,1.4069,1.402,1.3997,1.3962,1.3974,1.3936,1.391,1.3906,1.3858,1.384,1.3805,1.3753,1.3729,1.3736,1.3652,1.3675,1.3673,1.3669,1.3639,1.3632,1.3626,1.3707,1.3708,1.3708,0,0,1.4068,1.4047,1.4008,1.3986,1.3951,1.3936,1.3927,1.3892,1.388,1.3832,1.3828,1.3797,1.3735,1.371,1.369,1.3636,1.3634,1.3625,1.3603,1.3573,1.3567,1.3562,1.3542,1.3535,1.3621,1.3621,1.362,0,1.4053,1.4001,1.3989,1.3951,1.3929,1.3926,1.3887,1.3865,1.3821,1.3805,1.3814,1.3738,1.3714,1.3656,1.3643,1.3627,1.3615,1.3629,1.357,1.3564,1.3559,1.3539,1.3532,1.362,1.362,1.362,1.362,0,1.3984,1.3948,1.3921,1.3879,1.3855,1.3817,1.3798,1.3774,1.3769,1.3752,1.3704,1.3676,1.3635,1.3621,1.3615,1.3562,1.3567,1.3573,1.3588,1.3551,1.3533,1.3525,1.3618,1.3619,1.3619,1.3619,0,0,1.3931,1.3884,1.3874,1.3855,1.3817,1.3789,1.3751,1.3712,1.3692,1.3662,1.3629,1.3578,1.3583,1.356,1.3551,1.3525,1.3483,1.3534,1.3533,1.3524,1.3423,1.3417,1.3409,1.3483,1.3481,1.348,1.3425,0,1.3879,1.3812,1.38,1.3741,1.3707,1.3704,1.3671,1.3644,1.3628,1.3597,1.3579,1.3543,1.3553,1.3539,1.3514,1.3494,1.3462,1.3498,1.345,1.3448,1.3457,1.3399,1.3393,1.3343,1.3418,1.3417,1.3416,0,1.381,1.3779,1.3717,1.3684,1.3669,1.364,1.3603,1.3574,1.3543,1.3534,1.3509,1.3503,1.3462,1.3481,1.3425,1.3449,1.3429,1.3416,1.3414,1.3407,1.3428,1.3389,1.3326,1.3318,1.3404,1.3405,1.3406,0,1.3776,1.3719,1.3674,1.3658,1.3619,1.3598,1.3581,1.3552,1.353,1.3498,1.3483,1.3447,1.3427,1.3399,1.3383,1.3398,1.3327,1.3345,1.3317,1.3317,1.33,1.3301,1.3232,1.3291,1.3291,1.3291,1.3291,0,1.3719,1.368,1.3658,1.363,1.3587,1.3574,1.3532,1.3515,1.3489,1.3457,1.3453,1.3423,1.3405,1.3373,1.336,1.3315,1.3306,1.3296,1.3293,1.3296,1.3297,1.3281,1.3283,1.3289,1.3289,1.329,1.329,0,1.3672,1.3656,1.3607,1.3575,1.3566,1.3535,1.3507,1.348,1.3465,1.3425,1.3415,1.3392,1.3353,1.3336,1.3288,1.328,1.3227,1.3227,1.3238,1.3236,1.3209,1.3211,1.3125,1.3112,1.3181,1.3181,1.318,0,1.3636,1.3606,1.3571,1.3551,1.3533,1.3499,1.3477,1.3463,1.344,1.3403,1.338,1.3342,1.3311,1.3249,1.3227,1.3191,1.3189,1.3161,1.3183,1.3187,1.3187,1.3188,1.3184,1.3157,1.3156,1.3155,1.3155,0,1.3573,1.3567,1.3535,1.35,1.3474,1.3446,1.3418,1.3401,1.3384,1.3357,1.3319,1.3295,1.3247,1.3208,1.3171,1.3152,1.315,1.3149,1.314,1.3141,1.3148,1.3143,1.3225,1.315,1.3151,1.3151,1.3151,1.3151,1.3529,1.3503,1.3474,1.3439,1.3417,1.3392,1.3365,1.3347,1.3315,1.3275,1.327,1.3228,1.3198,1.3148,1.3128,1.3095,1.3101,1.3089,1.3085,1.3082,1.308,1.3155,1.3088,1.3088,1.3088,1.3088,1.3089,0,1.3464,1.3446,1.3414,1.3377,1.3349,1.3352,1.3322,1.3298,1.3262,1.3235,1.3204,1.316,1.3123,1.3099,1.3062,1.304,1.3038,1.303,1.303,1.3026,1.3077,1.3088,1.3032,1.3032,1.3032,1.3032,1.3032,1.3032,1.3427,1.3383,1.3373,1.3318,1.33,1.326,1.3242,1.3219,1.3197,1.3148,1.3118,1.3103,1.3077,1.3038,1.3004,1.2998,1.2984,1.2975,1.2969,1.3017,1.3023,1.3028,1.3038,1.2973,1.2973,1.2921,1.292,1.292]}]]